Location: Newark
(40.9833°N, 0.0333°W)
Time: 02:26:14
(UTC+00:00)

deb Explorer IX - Pass Details

Date: 28 October 2020
Orbit: 537 x 1105 km, 38.8° (Epoch: 02 December)

Event Time Altitude Azimuth Distance (km) Brightness Sun altitude
Rises 08:42:52 0° 274° (W) 3,669 ? 21.5°
Reaches altitude 10° 08:45:25 10° 272° (W) 2,787 ? 21.8°
Maximum altitude 08:52:16 68° 192° (SSW) 1,154 ? 22.8°
Drops below altitude 10° 08:59:33 10° 111° (ESE) 2,958 ? 23.7°
Sets 09:02:21 0° 108° (ESE) 3,906 ? 24.1°
